Concordia, KS

1:29 PM CDT on April 20, 2018 (GMT -0500)
Blosser Municipal

Weather History for KCNK - March, 2012

Change the Weather History Date:

Thursday, March 15, 2012

  Actual Average Record
Temperature  
Mean Temperature 67 °F 43 °F  
Max Temperature 77 °F 54 °F 85 °F (2003)
Min Temperature 56 °F 31 °F 3 °F (1912)
Degree Days  
Heating Degree Days 0 22  
Month to date heating degree days 222 372  
Since 1 July heating degree days 3973 4579  
Cooling Degree Days 2 0  
Month to date cooling degree days 5 0  
Year to date cooling degree days 5 0  
Growing Degree Days 17 (Base 50)    
Moisture  
Dew Point 58 °F    
Average Humidity 75    
Maximum Humidity 100    
Minimum Humidity 50    
Precipitation  
Precipitation 0.00 in 0.07 in 0.44 in (1960)
Month to date precipitation 0.19 0.79  
Year to date precipitation 2.79 2.16  
Snow  
Snow 0.00 in 0.10 in 5.90 in (1960)
Month to date snowfall 0.0 1.1  
Year to date snowfall 5.8 11.5  
Since 1 July snowfall 6.7 18.0  
Snow Depth -    
Sea Level Pressure  
Sea Level Pressure 29.93 in    
Wind  
Wind Speed 7 mph (South)    
Max Wind Speed 17 mph    
Max Gust Speed 24 mph    
Visibility 8 miles    
Events      
T = Trace of Precipitation, MM = Missing Value Source: NWS Daily Summary

Daily Weather History Graph

Daily Weather History Graph

Search for Another Location

Airport or City:

Astronomy

Mar. 15, 2012 Rise Set
Actual Time 7:41 AM CDT 7:38 PM CDT
Civil Twilight 7:14 AM CDT 8:04 PM CDT
Nautical Twilight 6:43 AM CDT 8:36 PM CDT
Astronomical Twilight 6:11 AM CDT 9:07 PM CDT
Moon 3:08 AM CDT (3/15) 12:58 PM CDT (3/15)
Length of Visible Light 12h 50m
Length of Day
11h 56m
Last Quarter, 43% of the Moon is Illuminated
Mar 15
Last Quarter
Mar 22
New
Mar 30
First Quarter
Apr 6
Full
Apr 13
Last Quarter

Hourly Weather History & Observations

Time (CDT) Temp. Dew Point Humidity Pressure Visibility Wind Dir Wind Speed Gust Speed Precip Events Conditions
12:55 AM 64.9 °F 59.0 °F 81% 29.91 in 10.0 mi South 11.5 mph 19.6 mph N/A   Clear
1:55 AM 63.0 °F 60.1 °F 90% 29.90 in 8.0 mi South 16.1 mph - N/A   Clear
2:55 AM 61.0 °F 59.0 °F 93% 29.91 in 7.0 mi South 17.3 mph - N/A   Clear
3:55 AM 60.1 °F 59.0 °F 96% 29.90 in 7.0 mi SSW 15.0 mph - N/A   Clear
4:55 AM 60.1 °F 59.0 °F 96% 29.90 in 7.0 mi SSW 13.8 mph - N/A   Clear
5:55 AM 61.0 °F 59.0 °F 93% 29.91 in 7.0 mi SW 10.4 mph - N/A   Partly Cloudy
6:19 AM 60.8 °F 59.0 °F 94% 29.95 in 7.0 mi Calm Calm - N/A   Mostly Cloudy
6:55 AM 60.1 °F 59.0 °F 96% 29.93 in 7.0 mi SSE 5.8 mph - N/A   Overcast
7:19 AM 60.8 °F 59.0 °F 94% 29.96 in 6.0 mi SSE 8.1 mph - N/A   Overcast
7:55 AM 59.0 °F 57.9 °F 96% 29.94 in 4.0 mi SSE 6.9 mph - N/A   Overcast
8:52 AM 60.8 °F 60.8 °F 100% 29.96 in 5.0 mi SSE 9.2 mph - N/A   Scattered Clouds
8:55 AM 61.0 °F 60.1 °F 97% 29.94 in 5.0 mi SSE 9.2 mph - N/A   Scattered Clouds
9:11 AM 62.6 °F 60.8 °F 94% 29.96 in 6.0 mi South 10.4 mph - N/A   Mostly Cloudy
9:26 AM 62.6 °F 60.8 °F 94% 29.97 in 6.0 mi South 11.5 mph - N/A   Mostly Cloudy
9:55 AM 64.0 °F 61.0 °F 90% 29.95 in 6.0 mi SSE 10.4 mph - N/A   Mostly Cloudy
10:55 AM 66.0 °F 61.0 °F 84% 29.97 in 8.0 mi South 8.1 mph - N/A   Overcast
11:50 AM 68.0 °F 60.8 °F 78% 29.99 in 9.0 mi SSE 3.5 mph - N/A   Overcast
11:55 AM 68.0 °F 60.1 °F 76% 29.96 in 9.0 mi ESE 3.5 mph - N/A   Overcast
12:55 PM 71.1 °F 57.9 °F 63% 29.95 in 10.0 mi SE 5.8 mph - N/A   Mostly Cloudy
1:55 PM 73.0 °F 57.9 °F 59% 29.93 in 10.0 mi South 10.4 mph - N/A   Overcast
2:55 PM 73.0 °F 55.0 °F 53% 29.91 in 10.0 mi South 10.4 mph - N/A   Overcast
3:55 PM 75.9 °F 55.9 °F 50% 29.90 in 10.0 mi SW 9.2 mph - N/A   Scattered Clouds
4:55 PM 75.9 °F 55.0 °F 48% 29.88 in 10.0 mi SSW 8.1 mph - N/A   Clear
5:55 PM 75.9 °F 55.9 °F 50% 29.87 in 10.0 mi Variable 3.5 mph - N/A   Clear
6:55 PM 73.0 °F 55.9 °F 55% 29.88 in 10.0 mi SSW 4.6 mph - N/A   Mostly Cloudy
7:55 PM 69.1 °F 55.9 °F 63% 29.90 in 10.0 mi West 3.5 mph - N/A   Partly Cloudy
8:55 PM 63.0 °F 54.0 °F 72% 29.91 in 10.0 mi Calm Calm - N/A   Clear
9:55 PM 64.0 °F 55.0 °F 73% 29.93 in 10.0 mi Calm Calm - N/A   Clear
10:55 PM 61.0 °F 55.0 °F 81% 29.93 in 10.0 mi Calm Calm - N/A   Clear
11:55 PM 57.0 °F 53.1 °F 87% 29.93 in 8.0 mi Calm Calm - N/A   Clear